This is the latest recevied weather packets stored in our database for station/object AD4CG. If no packets are shown the sender has not sent any weather packets the latest 10 day(s).
| Time | Temp. | Humidity | Pressure | Rain* | Wind** | Luminosity | Snow |
|---|---|---|---|---|---|---|---|
| 1777482144 | 20° C | 100% | 1012.2 hPa | 0 mm | - | - | - |
| 1777479953 | 18.89° C | 100% | 1013.2 hPa | 0 mm | - | - | - |
| 1777477529 | 18.33° C | 100% | 1014.6 hPa | 0 mm | - | - | - |
| 1777474399 | 18.33° C | 100% | 1014.2 hPa | 0 mm | - | - | - |
| 1777474084 | 18.33° C | 100% | 1014.2 hPa | 0 mm | - | - | - |
| 1777473767 | 18.33° C | 100% | 1014.2 hPa | 0 mm | - | - | - |
| 1777468764 | 16.67° C | 100% | 1015.2 hPa | 0 mm | - | - | - |
| 1777464695 | 14.44° C | 100% | 1015.9 hPa | 0 mm | - | - | - |
| 1777462818 | 13.89° C | 100% | 1015.9 hPa | 0 mm | - | - | - |
| 1777458740 | 13.33° C | 100% | 1015.2 hPa | 0 mm | - | - | - |
| 1777457452 | 13.33° C | 100% | 1015.2 hPa | 0 mm | - | - | - |
| 1777456187 | 13.33° C | 100% | 1014.9 hPa | 0 mm | - | - | - |
| 1777455866 | 12.78° C | 100% | 1015.2 hPa | 0 mm | - | - | - |
| 1777453966 | 12.78° C | 100% | 1015.2 hPa | 0 mm | - | - | - |
| 1777452397 | 13.33° C | 100% | 1014.9 hPa | 0 mm | - | - | - |
| 1777450205 | 12.78° C | 100% | 1015.2 hPa | 0 mm | - | - | - |
| 1777448640 | 12.78° C | 100% | 1015.2 hPa | 0 mm | - | - | - |
| 1777442077 | 13.33° C | 100% | 1015.9 hPa | 0 mm | - | - | - |
| 1777433948 | 14.44° C | 100% | 1018.3 hPa | 0 mm | - | - | - |
| 1777432069 | 14.44° C | 100% | 1018.6 hPa | 0 mm | - | - | - |
| 1777431441 | 15° C | 100% | 1019 hPa | 0 mm | - | - | - |
| 1777428938 | 15.56° C | 100% | 1017.9 hPa | 0 mm | - | - | - |
| 1777427372 | 16.11° C | 100% | 1018.3 hPa | 0 mm | - | - | - |
| 1777423931 | 17.22° C | 100% | 1017.6 hPa | 0 mm | - | - | - |
| 1777422987 | 17.22° C | 100% | 1017.6 hPa | 0 mm | - | - | - |
* Rain latest hour (hover to see other rain measurements)
** Current wind speed in m/s (hover to see current wind gust speed)